Kosmos-2209

operational
NORAD ID: 22112 Int'l Des: 1992-059 Owner: PVO Country: RU
HEOCIRCULARGSO

关于 Kosmos-2209

正在加载描述...

实时位置

正在加载3D地球...

即将过境

高度历史

Altitude vs Time

uPlot chart will show altitude changes over time

两行轨道根数

1 22112U 92059A 26071.06606398 -.00000248 00000-0 00000-0 0 9992
2 22112 13.6515 343.3501 0012201 335.6375 201.4261 1.00237339122647
Epoch: Mar 12, 2026 • Age: 24 hours

当前状态

高度 35846.9 km
速度 3.07 km/s
星下点 5.52°N, 32.59°W
发射日期 Sep 10, 1992
运行时间 33.5 years
类型 other

技术详情

分类 Payload
质量 1250.00 kg
干质量 1150.00 kg
总质量 1250.00 kg
长度 4.00 m
直径 2.00 m
跨度 5.00 m
形状 Cyl + 2 Pan
制造商 NPOL/KOMET
平台类型 Oko
阶段状态 In Orbit
所有者/国家 PVO/RU

大型星座

Loading constellations...